"Pseudo-MPEC" for ZTF10FF

Created 2026 Aug 13 11:35:37 UT using Find_Orb

Click here for an explanation of pseudo-MPECs

 
 Astrometry: 
     ZTF10FF*0C2026 08 08.27270520 31 28.629-25 35 36.58   ~88AZ 19.73RUNEOCPI41
     ZTF10FF 0C2026 08 08.27305320 31 28.975-25 35 46.30   ~88AZ 19.73RUNEOCPI41
     ZTF10FF 0C2026 08 08.30684520 32 05.730-25 51 39.56   ~88AZ 18.67iUNEOCPI41
     ZTF10FF 0C2026 08 08.30719320 32 06.037-25 51 48.98   ~88AZ 18.67iUNEOCPI41

Station data:
(I41) Palomar Mountain--ZTF  (N33.357336 W116.859780)  US/California.
   Observers B. T. Bolin, Z. T. F. Collaboration. Measurers B. T. Bolin,
   Z.-Y. Lin, F. J. Masci. 1.2-m f/2.4 Schmidt.

Orbital elements:  ZTF10FF
   Perihelion 2026 Jun 16.265681 +/- 39.7 TT =  6:22:34.8 (JD 2461207.765681)
Epoch 2026 Aug  8.0 TT = JDT 2461260.5   Earth MOID: 0.0126      AutoNEOCP
M  23.499399384 +/- 24              (J2000 ecliptic)
n   0.445618710 +/- 0.331           Peri.   97.100885 +/- 60
a   1.697567704 +/- 0.842           Node   134.520982 +/- 39
e   0.58643424 +/- 0.256            Incl.   19.555766 +/- 9
P   2.212/807.850d         H 26.25  G  0.15   U 12.0  SR
q 0.702055876 +/- 0.189    Q 2.693079532 +/- 38.2
From 4 observations 2026 Aug. 8 (49.7 min); mean residual 0".27
Residuals in arcseconds: 
260808 I41  .24+  .12-    260808 I41  .46+  .13-    
260808 I41  .25-  .12+    260808 I41  .45-  .13+    

Ephemerides (geocentric):
Date (UTC) HH   RA             Dec           delta  r     elong  mag " sig PA
---- --------  ------------   ------------  ------ ------ -----  --- --------
2026 08 13 12  21 14 50.412   -39 41 52.42  .08848 1.0938 154.7 22.3  48d 100
2026 08 13 13  21 14 58.849   -39 44 00.85  .08896 1.0942 154.7 22.3  48d 100
2026 08 13 14  21 15 07.206   -39 46 07.78  .08943 1.0946 154.6 22.3  48d 100
2026 08 13 15  21 15 15.486   -39 48 13.22  .08990 1.0950 154.6 22.3  48d 100
2026 08 13 16  21 15 23.689   -39 50 17.22  .09038 1.0954 154.5 22.3  48d 100
2026 08 13 17  21 15 31.815   -39 52 19.77  .09085 1.0958 154.5 22.4  48d 100
2026 08 13 18  21 15 39.867   -39 54 20.92  .09133 1.0962 154.4 22.4  49d 100
2026 08 13 19  21 15 47.845   -39 56 20.68  .09180 1.0966 154.4 22.4  49d 100
2026 08 13 20  21 15 55.751   -39 58 19.07  .09228 1.0970 154.4 22.4  49d 100
2026 08 13 21  21 16 03.584   -40 00 16.11  .09275 1.0974 154.3 22.4  49d 100
2026 08 13 22  21 16 11.347   -40 02 11.82  .09322 1.0978 154.3 22.4  49d 100
2026 08 13 23  21 16 19.040   -40 04 06.23  .09370 1.0982 154.2 22.4  49d 100
2026 08 14 00  21 16 26.665   -40 05 59.34  .09417 1.0986 154.2 22.4  49d 100
2026 08 14 01  21 16 34.221   -40 07 51.19  .09465 1.0990 154.1 22.5  49d 100
2026 08 14 02  21 16 41.710   -40 09 41.78  .09512 1.0994 154.1 22.5  49d 100
2026 08 14 03  21 16 49.133   -40 11 31.14  .09560 1.0998 154.0 22.5  49d 100
2026 08 14 04  21 16 56.491   -40 13 19.28  .09607 1.1002 154.0 22.5  49d 100
2026 08 14 05  21 17 03.785   -40 15 06.23  .09655 1.1006 154.0 22.5  49d 100
2026 08 14 06  21 17 11.015   -40 16 51.99  .09702 1.1010 153.9 22.5  49d 100
2026 08 14 07  21 17 18.183   -40 18 36.59  .09750 1.1014 153.9 22.5  49d 100
2026 08 14 08  21 17 25.288   -40 20 20.05  .09798 1.1018 153.8 22.5  49d 100
2026 08 14 09  21 17 32.333   -40 22 02.37  .09845 1.1022 153.8 22.6  49d 100
2026 08 14 10  21 17 39.317   -40 23 43.58  .09893 1.1026 153.7 22.6  49d 100
2026 08 14 11  21 17 46.243   -40 25 23.68  .09940 1.1030 153.7 22.6  49d 100
2026 08 14 12  21 17 53.109   -40 27 02.71  .09988 1.1034 153.7 22.6  49d 100
2026 08 14 13  21 17 59.917   -40 28 40.66  .10035 1.1038 153.6 22.6  49d 100
2026 08 14 14  21 18 06.669   -40 30 17.55  .10083 1.1042 153.6 22.6  49d 100
2026 08 14 15  21 18 13.364   -40 31 53.41  .10131 1.1046 153.5 22.6  49d 100
2026 08 14 16  21 18 20.003   -40 33 28.24  .10178 1.1050 153.5 22.6  49d 100
2026 08 14 17  21 18 26.587   -40 35 02.06  .10226 1.1054 153.5 22.6  49d 100
2026 08 14 18  21 18 33.117   -40 36 34.88  .10274 1.1058 153.4 22.7  49d 100
2026 08 14 19  21 18 39.594   -40 38 06.71  .10321 1.1062 153.4 22.7  49d 100
2026 08 14 20  21 18 46.017   -40 39 37.58  .10369 1.1066 153.3 22.7  49d 100
2026 08 14 21  21 18 52.388   -40 41 07.48  .10417 1.1070 153.3 22.7  49d 100
2026 08 14 22  21 18 58.708   -40 42 36.43  .10464 1.1074 153.3 22.7  49d 100
2026 08 14 23  21 19 04.976   -40 44 04.46  .10512 1.1078 153.2 22.7  49d 100
2026 08 15 00  21 19 11.195   -40 45 31.56  .10560 1.1082 153.2 22.7  49d 100
2026 08 15 01  21 19 17.363   -40 46 57.75  .10608 1.1086 153.2 22.7  49d 100
2026 08 15 02  21 19 23.483   -40 48 23.04  .10655 1.1090 153.1 22.8  49d 100
2026 08 15 03  21 19 29.554   -40 49 47.44  .10703 1.1094 153.1 22.8  49d 100
2026 08 15 04  21 19 35.577   -40 51 10.98  .10751 1.1098 153.0 22.8  49d 100
2026 08 15 05  21 19 41.553   -40 52 33.64  .10799 1.1102 153.0 22.8  49d 100
2026 08 15 06  21 19 47.482   -40 53 55.46  .10846 1.1106 153.0 22.8  49d 100
2026 08 15 07  21 19 53.365   -40 55 16.43  .10894 1.1109 152.9 22.8  49d 100
2026 08 15 08  21 19 59.202   -40 56 36.57  .10942 1.1113 152.9 22.8  49d 100
2026 08 15 09  21 20 04.994   -40 57 55.89  .10990 1.1117 152.9 22.8  49d 100
2026 08 15 10  21 20 10.742   -40 59 14.40  .11038 1.1121 152.8 22.8  50d 100
2026 08 15 11  21 20 16.445   -41 00 32.10  .11085 1.1125 152.8 22.9  50d 100